Location: Winthrop
(48.4780°N, 120.1850°W)
Time: 02:51:23
(UTC-07:00)

CAS-4A - Pass Details

Date: 25 May 2022
Orbit: 523 x 537 km, 43.0° (Epoch: 27 June)

Event Time Altitude Azimuth Distance (km) Brightness Sun altitude
Rises 22:10:03 0° 266° (W) 2,655 ? -11.0°
Reaches altitude 10° 22:12:27 10° 256° (WSW) 1,762 ? -11.2°
Maximum altitude 22:16:01 31° 193° (SSW) 932 ? -11.6°
Enters shadow 22:18:14 18° 143° (SE) 1,311 ? -11.8°
